Location: New Plymouth
(39.0670°S, 174.0830°E)
Time: 20:20:41
(UTC+13:00)

Cosmos 2322 - Pass Details

Date: 24 January 2019
Orbit: 839 x 856 km, 71.0° (Epoch: 17 February)

Event Time Altitude Azimuth Distance (km) Brightness Sun altitude
Exits shadow 23:18:15 26° 331° (NNW) 1,602 4.9 -23.4°
Maximum altitude 23:21:33 79° 247° (WSW) 872 3.7 -23.8°
Drops below altitude 10° 23:27:17 10° 159° (SSE) 2,492 6.6 -24.4°
Sets 23:29:46 0° 158° (SSE) 3,432 7.3 -24.7°
